Location: Lafig�re
(44.4503°N, 4.0357°E)
Time: 16:44:18
(UTC+00:00)

S-56A Canister/Altair - Pass Details

Date: 24 January 2021
Orbit: 631 x 2501 km, 38.9° (Epoch: 04 March)

Event Time Altitude Azimuth Distance (km) Brightness Sun altitude
Rises 05:05:32 0° 265° (W) 2,925 - -22.1°
Reaches altitude 10° 05:07:45 10° 258° (WSW) 2,063 - -21.7°
Exits shadow 05:10:48 35° 225° (SW) 1,149 8.1 -21.2°
Maximum altitude 05:12:06 42° 187° (S) 1,051 8.2 -21.0°
Drops below altitude 10° 05:17:38 10° 118° (ESE) 2,627 11.3 -20.0°
Sets 05:20:48 0° 112° (ESE) 3,839 12.6 -19.4°
